Weather History for KJER - June, 2013

Change the Weather History Date:

Thursday, June 13, 2013

  Actual Average Record
Temperature  
Mean Temperature 60 °F 63 °F  
Max Temperature 72 °F 77 °F 98 °F (1974)
Min Temperature 47 °F 49 °F 34 °F (2005)
Degree Days  
Heating Degree Days 5 4  
Month to date heating degree days 22 67  
Since 1 June heating degree days 22 67  
Since 1 July heating degree days 6197 6594  
Cooling Degree Days 0 2  
Month to date cooling degree days 48 17  
Year to date cooling degree days 63 30  
Since 1 June cooling degree days 48 17  
Growing Degree Days 10 (Base 50)    
Moisture  
Dew Point 39 °F    
Average Humidity 52    
Maximum Humidity 77    
Minimum Humidity 26    
Precipitation  
Precipitation 0.01 in 0.03 in 0.33 in (1992)
Month to date precipitation 0.01 0.56  
Year to date precipitation 2.41 6.16  
Sea Level Pressure  
Sea Level Pressure 29.93 in    
Wind  
Wind Speed 15 mph (WSW)    
Max Wind Speed 31 mph    
Max Gust Speed 39 mph    
Visibility 10 miles    
Events Rain , Thunderstorm    
T = Trace of Precipitation, MM = Missing Value Source: NWS Daily Summary

Daily Weather History Graph

Daily Weather History Graph

Search for Another Location

Airport or City:

Trip Planner

Search our weather history database for the weather conditions in past years. The results will help you decide how hot, cold, wet, or windy it might be!

Date:

Astronomy

Jun. 13, 2013 Rise Set
Actual Time 5:59 AM MDT 9:17 PM MDT
Civil Twilight 5:24 AM MDT 9:52 PM MDT
Nautical Twilight 4:38 AM MDT 10:37 PM MDT
Astronomical Twilight 3:43 AM MDT 11:33 PM MDT
Moon 10:45 AM MDT (6/13) No Moon Set
Length of Visible Light 16h 27m
Length of Day
15h 17m
Waxing Crescent, 22% of the Moon is Illuminated
Jun 13
Waxing Crescent
Jun 16
First Quarter
Jun 23
Full
Jun 29
Last Quarter
Jul 8
New

Hourly Weather History & Observations

Time (MDT) Temp. Dew Point Humidity Pressure Visibility Wind Dir Wind Speed Gust Speed Precip Events Conditions
12:53 AM 60.1 °F 51.1 °F 72% 29.80 in 10.0 mi ENE 12.7 mph - N/A   Clear
1:45 AM 60.8 °F 53.6 °F 77% 29.94 in 10.0 mi Calm Calm - 0.01 in Rain , Thunderstorm Light Rain
1:53 AM 59.0 °F 53.1 °F 81% 29.84 in 10.0 mi NW 4.6 mph - 0.01 in Thunderstorm Mostly Cloudy
2:00 AM 57.2 °F 53.6 °F 88% 29.92 in 10.0 mi NW 6.9 mph - N/A   Scattered Clouds
2:53 AM 55.0 °F 48.9 °F 80% 29.85 in 10.0 mi SW 10.4 mph - N/A   Clear
3:53 AM 51.1 °F 44.1 °F 77% 29.86 in 10.0 mi South 8.1 mph - N/A   Clear
4:53 AM 50.0 °F 39.9 °F 68% 29.87 in 10.0 mi SSW 10.4 mph - N/A   Clear
5:53 AM 48.9 °F 37.9 °F 66% 29.89 in 10.0 mi South 9.2 mph - N/A   Clear
6:53 AM 48.0 °F 37.9 °F 68% 29.92 in 10.0 mi SSE 9.2 mph - N/A   Clear
7:53 AM 50.0 °F 39.0 °F 66% 29.92 in 10.0 mi SSW 12.7 mph - N/A   Clear
8:53 AM 55.9 °F 39.9 °F 55% 29.93 in 10.0 mi SSW 15.0 mph - N/A   Clear
9:53 AM 61.0 °F 41.0 °F 48% 29.93 in 10.0 mi WSW 13.8 mph 24.2 mph N/A   Clear
10:53 AM 63.0 °F 41.0 °F 45% 29.93 in 10.0 mi WSW 19.6 mph 26.5 mph N/A   Clear
11:53 AM 66.0 °F 39.0 °F 37% 29.93 in 10.0 mi WSW 20.7 mph 27.6 mph N/A   Clear
12:53 PM 68.0 °F 35.1 °F 30% 29.92 in 10.0 mi West 21.9 mph 27.6 mph N/A   Clear
1:53 PM 71.1 °F 36.0 °F 28% 29.92 in 10.0 mi West 16.1 mph - N/A   Clear
2:53 PM 70.0 °F 33.1 °F 26% 29.93 in 10.0 mi West 12.7 mph 20.7 mph N/A   Clear
3:53 PM 66.9 °F 30.9 °F 26% 29.94 in 10.0 mi West 21.9 mph 32.2 mph N/A   Clear
4:53 PM 66.9 °F 32.0 °F 27% 29.95 in 10.0 mi WSW 17.3 mph 24.2 mph N/A   Partly Cloudy
5:53 PM 63.0 °F 32.0 °F 31% 29.98 in 10.0 mi WSW 23.0 mph 38.0 mph N/A   Mostly Cloudy
6:53 PM 66.0 °F 30.0 °F 26% 29.94 in 10.0 mi West 15.0 mph 21.9 mph N/A   Clear
7:53 PM 64.0 °F 28.9 °F 27% 29.96 in 10.0 mi WSW 12.7 mph - N/A   Clear
8:53 PM 59.0 °F 30.9 °F 35% 29.99 in 10.0 mi WSW 15.0 mph 25.3 mph N/A   Clear
9:53 PM 55.0 °F 33.1 °F 43% 30.01 in 10.0 mi West 19.6 mph 27.6 mph N/A   Clear
10:53 PM 53.1 °F 34.0 °F 48% 30.05 in 10.0 mi West 19.6 mph 27.6 mph N/A   Clear
11:53 PM 52.0 °F 34.0 °F 50% 30.08 in 10.0 mi West 23.0 mph 29.9 mph N/A   Overcast